Location: ?????
(54.9266°N, 38.5527°E)
Time: 19:30:43
(UTC+00:00)

deb REX - Pass Details

Date: 27 September 2024
Orbit: 705 x 731 km, 89.8° (Epoch: 09 October)

Event Time Altitude Azimuth Distance (km) Brightness Sun altitude
Rises 01:54:20 0° 6° (N) 3,120 ? -13.2°
Reaches altitude 10° 01:56:51 10° 16° (NNE) 2,194 ? -12.8°
Maximum altitude 02:01:13 33° 80° (E) 1,195 ? -12.2°
Drops below altitude 10° 02:05:33 10° 144° (SE) 2,175 ? -11.6°
Sets 02:08:01 0° 154° (SSE) 3,090 ? -11.3°
